Printer-friendly version

IAU Minor Planet Center

Minor Planet Center

MPEC 2002-F29 : 2000 GE2

The following Minor Planet Electronic Circular may be linked-to from your own Web pages, but must not otherwise be redistributed electronically.


Read MPEC 2002-F28 Read MPEC 2002-F30


M.P.E.C. 2002-F29                                Issued 2002 Mar. 20, 16:22 UT

     The Minor Planet Electronic Circulars contain information on unusual
         minor planets and routine data on comets.  They are published
   on behalf of Commission 20 of the International Astronomical Union by the
          Minor Planet Center, Smithsonian Astrophysical Observatory,
                          Cambridge, MA 02138, U.S.A.

             Prepared using the Tamkin Foundation Computer Network

                              MPC@CFA.HARVARD.EDU
          URL http://cfa-www.harvard.edu/iau/mpc.html  ISSN 1523-6714

                                   2000 GE2

                           Revision to MPEC 2000-G27

Additional observations:
     K00G02E  C1998 03 25.33601 13 29 47.47 -12 45 23.3          18.6        704
     K00G02E  C1998 03 25.35611 13 29 47.57 -12 45 43.3          19.2        704
     K00G02E  C1998 03 25.37638 13 29 47.56 -12 46 03.6          19.6        704
     K00G02E  C1998 03 25.39663 13 29 47.56 -12 46 23.9          19.1        704
     K00G02E  C1998 03 29.29472 13 30 27.50 -14 02 56.0          18.6        704
     K00G02E  C1998 03 29.31490 13 30 27.38 -14 03 23.7          18.9        704
     K00G02E  C1998 03 29.33521 13 30 27.02 -14 03 52.6          19.0        704
     K00G02E  C1998 03 29.35553 13 30 26.96 -14 04 20.5          18.9        704
     K00G02E  C1998 03 29.37573 13 30 26.74 -14 04 47.0          19.2        704
     K00G02E  C1998 03 31.38262 13 30 37.65 -14 55 17.3          18.9        704
     K00G02E  C1998 03 31.40349 13 30 37.35 -14 55 51.9          18.4        704
     K00G02E  C1998 03 31.42443 13 30 37.10 -14 56 26.4          18.2        704
     K00G02E  C1998 03 31.44526 13 30 36.81 -14 57 01.1          18.8        704
     K00G02E  C1998 04 01.33201 13 30 41.62 -15 22 47.0          17.8        704
     K00G02E  C1998 04 01.35234 13 30 41.27 -15 23 23.9          17.6        704
     K00G02E  C1998 04 01.39312 13 30 40.67 -15 24 37.6          18.2        704
     K00G02E  C1998 04 01.41344 13 30 40.39 -15 25 15.9          18.3        704
     K00G02E  C2002 03 19.33364 12 34 14.53 -05 16 38.5          18.8 R      699
     K00G02E  C2002 03 19.34784 12 34 13.15 -05 16 36.0                      699
     K00G02E  C2002 03 19.36194 12 34 11.65 -05 16 35.0                      699
     K00G02E  C2002 03 19.37607 12 34 10.22 -05 16 34.3                      699
     K00G02E  C2002 03 19.94931 12 33 16.20 -05 15 28.4                      557
     K00G02E  C2002 03 19.95152 12 33 15.94 -05 15 29.0                      557
     K00G02E  C2002 03 19.95374 12 33 15.73 -05 15 28.7          19.5 V      557
     K00G02E  C2002 03 20.39602 12 32 31.06 -05 14 23.9          18.4 R      711
     K00G02E  C2002 03 20.40440 12 32 30.22 -05 14 22.7          18.4 R      711

Observer details:
557 Ondrejov.  Observer L. Sarounova.  0.65-m f/3.6 reflector + CCD.
699 Lowell Observatory-LONEOS.  Observer B. A. Skiff.  0.59-m LONEOS
    Schmidt + CCD.
704 Lincoln Laboratory ETS, New Mexico.  Observers M. Blythe, F. Shelly,
    M. Bezpalko, R. Huber, L. Manguso, S. Adams, J. Piscitelli.  Measurers
    J. Stuart, R. Sayer, J. B. Evans, H. Viggh.  1.0-m f/2.15 reflector + CCD.
711 McDonald Observatory.  Observer J. G. Ries.  0.76-m reflector + CCD.

Orbital elements:
2000 GE2                                                             PHA 0.011
Epoch 2002 May 6.0 TT = JDT 2452400.5                   MPC
M 341.20347              (2000.0)            P               Q
n   0.49067809     Peri.  297.54663     +0.33006199     +0.94394314
a   1.5919824      Node   351.72022     -0.85199513     +0.29538507
e   0.5555547      Incl.    2.19530     -0.40640297     +0.14737370
P   2.01           H   20.8           G   0.15           U   3
Residuals in seconds of arc
980325 704  0.7-  0.6-    000405 704  0.6+  0.2-    000408 151  0.1+  0.1-
980325 704  0.7+  0.2-    000405 704  0.7+  0.2+    000408 151  0.4+  0.6+
980325 704  0.6+  0.1+    000405 699  0.5+  0.2-    000408 151  0.1+  0.4+
980325 704  0.6+  0.2+    000405 704  0.6+  0.2+    000408 151  0.7-  0.6+
980329 704  0.3+  0.3+    000405 699  0.5+  0.2-    000408 151  0.3+  1.5+
980329 704  1.0+  0.5+    000405 699  0.5+  0.4-    000408 151  0.9-  0.4+
980329 704  1.8-  0.5-    000405 699  0.4+  0.4-    000409 739  0.2-  0.3-
980329 704  0.1-  0.5-    000405 345  1.7-  0.5-    000409 739  0.2-  1.1+
980329 704  0.8-  0.7+    000405 345  1.7-  0.8-    000409 739  0.4+  0.0
980331 704  0.8+  0.3+    000406 704  0.0   0.3+    000410 670  0.0   1.0-
980331 704  0.2+  0.2-    000406 704  0.1-  0.1+    000410 670  0.8+  0.5-
980331 704  0.0   0.6-    000406 673 (2.6-  0.2+)   000411 670  0.2+  0.1+
980331 704  1.0-  1.4-    000406 704  0.1+  0.2+    000411 670  0.3+  0.1-
980401 704  0.0   0.2+    000406 673 (2.2-  0.1+)   000411 428  0.1+  0.0
980401 704  0.4-  0.3+    000406 704  0.0   0.0     000411 428 (2.2+  0.6+)
980401 704  0.0   0.5+    000406 704  0.1-  0.0     000411 428 (5.4+  1.2+)
980401 704  0.2+  1.1-    000406 903  0.9-  0.4-    000411 413  0.0   0.1-
000330 704  0.2-  0.2+    000406 903  0.5-  0.2-    000411 413  0.0   0.1-
000330 704  0.0   0.3-    000406 900  1.0+  0.0     000411 900  0.3+  0.7-
000330 704  0.0   0.0     000406 900  0.2+  0.3+    000411 900  1.5+  1.8-
000330 704  0.7+  0.3-    000406 046  0.1-  0.2+    000412 903  1.0-  0.1-
000330 704  0.0   0.3+    000406 046  0.3-  0.3+    000412 903 (0.2+  2.4+)
000403 704  0.5-  0.0     000406 046  0.3-  0.1-    000413 118  0.1-  0.1+
000403 704  0.6-  0.3+    000406 046  0.4+  0.0     000413 118  0.6-  0.1+
000403 699  0.7-  0.1+    000406 046  0.3+  0.2+    000414 860 (2.3+  1.5-)
000403 704  0.9-  0.2+    000406 151 (2.5-  0.0 )   000414 860  0.4+  0.1-
000403 699  0.6+  0.2+    000406 151  1.1-  0.2-    000414 860  0.2+  0.6-
000403 699  0.4+  0.0     000406 151  0.7-  1.2-    000414 118  0.4+  1.0+
000403 699  0.9+  0.2+    000406 151  0.3+  0.4-    000414 118  0.1+  0.3+
000404 704  0.4+  0.2-    000406 151  0.2+  0.2-    000416 860  2.0+  1.1-
000404 704  0.3+  0.1-    000406 151  0.5-  0.3+    000416 860  0.8-  0.6-
000404 854  1.4-  0.4-    000407 163  0.2+  0.3-    000416 860  0.1-  0.1-
000404 854  0.5-  0.8+    000407 163  0.4+  0.2-    000416 900 (2.7-  0.8+)
000404 704  0.2+  0.0     000407 163  0.5+  0.2-    000416 900  0.6+  1.5+
000404 704  0.2+  0.1-    000407 704  0.3+  1.0+    000416 046  0.4-  0.3-
000404 704  0.2+  0.0     000407 704  0.2+  0.2+    000416 046  0.2+  0.3+
000404 704  1.4+  0.0     000407 704  0.3+  0.1+    000416 046  0.3+  0.1-
000404 704 (2.2+  1.2+)   000407 704  0.5+  0.0     000416 046  0.0   0.3+
000404 704  0.2+  0.2+    000407 704  0.8+  0.3+    000416 046  0.1+  0.4-
000404 688  0.2+  0.0     000407 151  0.3-  0.4-    000416 046  0.1-  0.2-
000404 704  0.0   0.2+    000407 151  0.7-  0.7+    000417 860  1.0-  0.0
000404 704  0.0   0.1-    000407 151  0.8-  0.5+    000417 860  0.5+  0.3+
000404 688  0.2+  0.1+    000407 151  0.3+  0.2-    000417 860  0.6-  0.3+
000404 673  1.6-  0.2+    000407 151  1.3-  0.7+    020319 699  0.0   0.0
000404 673  1.0-  0.4+    000407 151  0.6+  1.3+    020319 699  1.0+  0.9+
000404 673 (3.4-  0.3-)   000408 402  0.2+  0.4-    020319 699  0.1+  0.2+
000405 860  0.3+  0.2-    000408 402  0.7+  0.4-    020319 699  0.3+  0.7-
000405 860  0.0   0.7-    000408 402  1.2+  0.4-    020319 557  0.3-  0.5+
000405 860  0.5+  0.5+    000408 610  1.3-  0.9-    020319 557  0.7-  0.3-
000405 860  0.8+  0.5+    000408 610  1.3-  0.5-    020319 557  0.4-  0.3-
000405 704  0.3+  0.1+    000408 610  1.2-  0.2-    020320 711  0.2-  0.4+
000405 704  0.5+  0.3+    000408 610  1.2-  0.1+    020320 711  0.9+  0.4+

Ephemeris:
2000 GE2                 a,e,i = 1.59, 0.56, 2                   q = 0.7075
Date    TT    R. A. (2000) Decl.     Delta      r     Elong.  Phase     V
2002 03 07    12 46.18   -05 19.7    0.473    1.431   153.5    18.0    20.9
2002 03 12    12 42.88   -05 22.9    0.415    1.390   159.2    14.7    20.4
2002 03 17    12 37.56   -05 20.0    0.360    1.347   165.4    10.7    19.9
2002 03 22    12 29.69   -05 10.1    0.309    1.304   172.1     6.0    19.3
2002 03 27    12 18.49   -04 51.6    0.262    1.260   177.4     2.1    18.6
2002 04 01    12 02.70   -04 21.9    0.218    1.215   170.5     7.8    18.5
2002 04 06    11 40.15   -03 35.8    0.178    1.170   160.2    16.8    18.3
2002 04 11    11 07.06   -02 24.3    0.142    1.124   147.1    29.0    18.1
2002 04 16    10 16.91   -00 32.1    0.113    1.079   129.7    45.7    18.0
2002 04 21    09 00.77   +02 16.5    0.091    1.033   105.8    69.3    18.1
2002 04 26    07 18.88   +05 32.6    0.084    0.988    75.6    99.7    19.0
2002 05 01    05 38.81   +07 43.0    0.095    0.944    46.3   129.6    21.2
2002 05 06    04 26.30   +08 30.2    0.119    0.902    24.5   152.4    24.9

Timothy B. Spahr             (C) Copyright 2002 MPC           M.P.E.C. 2002-F29

Read MPEC 2002-F28 Read MPEC 2002-F30


Our Web policy. Index to the CBAT/MPC/ICQ pages.


Valid HTML 4.01!